Theta_e
330 327 325 325 328 330 325 326 330 328 324 327 330 332 334 333 332 330 330 328 328 326 325 325 326 325 326 324 323 323 324 325
328 327 326 325 326 329 326 323 325 326 327 327 328 327 328 328 331 330 329 326 326 326 324 325 326 327 325 325 323 324 325 325
331 331 329 328 327 329 324 326 327 326 324 328 329 329 328 327 327 328 328 326 326 325 325 324 324 326 325 324 323 324 324 324
330 328 329 326 327 326 326 326 329 328 328 326 330 330 330 327 326 327 327 326 326 325 325 324 324 324 324 324 322 322 321 322
329 330 329 327 326 326 327 325 326 327 327 329 329 330 328 328 328 330 329 327 327 327 325 324 324 325 325 324 323 323 322 321
330 329 326 326 326 326 327 326 329 331 331 330 331 332 330 330 330 329 330 326 328 327 324 324 325 325 323 322 322 320 321 320
328 327 326 326 327 327 327 328 327 329 333 332 332 332 330 329 331 331 330 325 324 326 325 325 327 324 323 322 322 322 319 320
328 327 327 328 328 328 328 328 329 329 328 330 329 331 331 331 331 330 329 327 327 327 326 326 326 323 323 322 322 322 320 320
326 327 328 328 329 329 330 329 329 327 327 327 327 328 330 330 331 330 329 329 329 328 326 326 326 324 324 324 322 321 320 321
326 328 329 329 330 330 330 330 331 331 329 330 330 330 330 330 330 331 330 328 327 326 325 322 325 323 325 324 323 320 319 321
327 329 330 331 330 331 331 332 333 332 332 332 331 330 328 326 326 325 327 327 326 326 325 321 324 323 320 325 324 322 317 320
329 330 331 332 332 332 332 332 334 334 334 331 330 326 320 323 324 325 325 325 324 324 324 324 324 323 322 321 322 323 321 317
330 330 331 331 331 331 332 333 334 334 333 331 329 327 325 324 324 324 323 323 324 322 322 324 325 324 323 321 323 324 320 319
328 328 328 329 330 330 330 329 331 331 331 330 328 326 324 322 323 322 319 319 320 321 322 322 324 324 321 321 319 321 322 320
321 324 325 326 326 326 326 326 327 329 328 326 326 326 326 324 323 320 319 317 316 319 322 322 321 323 322 322 318 317 319 317
322 323 324 323 321 325 325 324 325 327 325 324 325 325 323 322 322 319 318 318 317 320 321 322 322 322 322 322 318 316 317 316
320 322 323 323 323 325 323 322 323 323 322 322 322 324 322 321 321 320 317 320 318 318 320 320 321 321 322 322 317 316 319 318
317 319 320 323 324 322 317 318 319 318 317 320 320 318 319 318 315 315 318 319 318 317 318 319 320 320 321 321 319 318 318 319
318 317 316 312 314 313 313 314 314 315 315 315 316 316 316 316 315 316 317 317 317 317 317 318 319 317 318 318 320 320 319 317
314 309 309 309 310 312 313 314 313 313 315 316 314 313 313 313 313 316 316 315 316 317 318 317 314 313 318 318 319 318 319 318
Wind_Speed
14 13 13 12 10 5 6 4 3 3 4 2 2 2 2 1 2 3 2 2 1 2 3 3 3 2 2 3 4 4 6 4
15 14 11 10 9 7 6 5 4 4 2 1 1 1 1 1 1 3 3 3 3 3 3 3 2 2 3 3 3 4 5 4
12 10 10 10 10 9 8 6 5 2 3 2 1 0 1 1 2 3 4 4 4 4 4 4 4 3 4 4 4 4 3 4
12 10 11 11 9 10 9 8 5 4 1 1 2 2 2 3 4 4 5 5 5 5 5 5 4 4 4 4 5 5 5 5
15 14 14 12 10 8 9 5 4 3 3 4 4 4 4 4 4 5 6 6 7 7 6 6 5 4 5 5 5 5 5 5
14 10 10 10 10 10 9 7 7 7 6 6 5 5 5 5 5 5 7 6 7 9 7 7 5 4 5 5 6 6 5 6
13 13 11 10 10 10 10 9 9 9 7 6 6 5 5 4 6 7 6 6 6 9 7 8 6 5 5 6 6 6 6 7
14 13 11 10 9 10 10 9 10 9 7 6 6 6 5 5 6 6 7 6 7 8 7 9 7 7 7 6 7 6 7 7
13 13 12 11 10 11 11 10 10 7 6 6 5 5 4 5 4 6 5 6 9 7 7 7 8 8 8 7 7 8 8 5
11 12 11 12 13 13 11 12 10 7 4 3 4 4 4 6 5 6 6 6 6 7 8 6 9 9 8 9 8 7 7 5
12 11 11 11 12 11 10 9 7 5 5 3 4 3 4 4 3 4 4 6 8 7 8 7 10 8 9 9 9 9 8 5
12 9 9 11 10 8 6 6 5 4 4 5 6 4 4 2 4 4 6 6 7 8 8 9 10 9 10 7 7 9 8 8
12 8 9 8 5 5 4 5 4 5 6 7 6 6 4 4 4 6 5 6 6 7 8 9 10 8 9 10 11 10 7 6
9 4 6 7 8 9 9 6 7 7 8 8 7 7 6 5 6 6 6 6 7 8 8 8 8 9 8 8 7 10 8 8
9 11 9 9 10 8 6 7 8 8 6 6 6 7 7 8 7 6 8 7 7 9 10 8 7 8 9 7 6 6 8 6
8 8 9 9 6 6 8 8 8 8 6 6 6 7 5 5 6 6 7 7 8 10 10 10 11 11 9 8 5 4 11 9
5 5 8 11 7 10 9 7 7 6 6 6 8 6 6 7 8 7 8 9 8 10 11 12 11 11 11 12 10 11 12 10
5 7 5 6 7 3 5 5 6 6 6 5 5 6 7 7 7 8 10 10 10 11 12 12 12 12 12 12 9 12 10 9
6 5 2 5 5 4 5 5 5 4 4 5 5 7 9 9 9 10 9 9 10 11 12 13 13 12 11 10 12 12 14 9
0 4 5 2 3 3 3 3 4 5 5 6 7 8 8 9 10 10 9 10 10 12 12 12 12 11 10 10 13 12 13 10
Wind_Direction
177 182 185 186 190 198 189 144 120 153 153 178 110 134 169 216 237 237 250 268 280 296 317 323 316 342 320 340 342 343 345 331
183 187 189 189 198 213 189 182 163 188 152 79 103 148 169 211 190 250 249 255 254 283 302 318 293 324 309 318 327 334 325 329
190 192 196 203 211 205 200 191 188 160 217 149 239 44 251 281 253 262 249 255 267 273 282 289 298 294 291 298 312 320 304 304
191 201 208 212 205 201 197 197 191 198 245 306 298 263 254 243 253 265 266 251 248 261 262 272 282 281 289 291 297 299 302 294
206 205 212 207 206 199 198 187 194 225 251 265 272 264 260 251 263 272 276 264 263 255 255 259 263 266 270 268 277 271 269 270
217 211 211 207 208 206 199 209 216 231 236 245 258 268 271 274 284 273 274 261 265 260 248 256 265 258 262 269 284 284 275 283
225 219 210 207 209 211 217 216 234 242 244 254 266 281 269 285 286 283 288 272 255 254 250 258 253 259 258 266 266 268 282 288
229 224 219 218 218 225 230 238 241 248 258 258 270 278 270 253 270 279 282 278 269 250 252 255 245 251 259 257 263 262 275 288
228 228 224 224 230 230 228 234 234 233 246 267 273 279 289 279 282 288 289 278 278 269 268 259 244 245 259 260 263 262 271 274
218 208 206 212 219 224 222 226 232 228 225 244 266 300 302 302 305 295 287 290 297 297 284 269 259 260 249 248 238 260 264 261
231 211 202 206 211 211 223 231 230 227 217 242 250 267 258 268 282 305 326 314 307 301 288 256 263 252 259 253 239 232 264 257
244 226 215 217 219 210 214 232 227 232 202 217 232 261 286 308 295 301 312 326 318 314 304 283 266 257 241 252 248 245 233 256
241 235 233 225 221 205 202 214 221 225 208 221 229 244 248 288 287 296 294 293 298 310 317 306 282 259 249 251 247 228 219 257
233 223 181 165 158 165 169 184 218 211 216 223 242 260 278 286 294 304 318 327 325 324 319 310 296 280 257 251 254 252 227 230
166 172 162 147 167 166 169 197 230 228 236 247 257 271 279 285 299 305 309 311 316 314 315 302 300 284 261 251 231 255 252 238
186 165 151 153 163 225 199 213 243 246 266 273 276 286 287 291 307 312 302 301 307 304 299 296 291 284 270 225 217 172 256 243
189 181 179 182 194 217 236 248 268 298 301 311 311 320 312 307 310 306 301 300 303 304 305 304 295 286 266 231 237 238 234 236
190 212 208 183 236 246 302 290 296 324 317 310 318 318 324 318 315 307 305 301 303 306 306 299 292 289 273 240 226 230 235 238
217 240 9 3 327 308 314 311 312 324 326 328 329 330 333 328 313 303 295 301 306 307 306 300 297 294 269 237 230 233 224 231
323 56 38 356 282 345 339 336 338 359 351 345 345 337 333 325 317 305 298 302 307 308 307 310 299 285 258 232 230 224 224 223